Regional Weather Roundup
Issued by NWS Sterling, VA

Home | Current Version | Previous Version | Text Only | Print | Product List | Glossary On
Versions: 1 2 3 4 5 6 7 8 9 10 11 12 13 14 15 16 17 18 19 20 21 22 23 24 25 26 27 28 29 30 31 32 33 34 35 36 37 38 39 40 41 42 43 44 45 46 47 48 49 50
000
ASUS41 KLWX 270711
RWRLWX

REGIONAL WEATHER ROUNDUP
NATIONAL WEATHER SERVICE BALTIMORE MD/WASHINGTON DC
300 AM EDT MON MAR 27 2017

Note: "FAIR" indicates few or no clouds below 12,000 feet
with no significant weather and/or obstructions to visibility.
 TC=TEMPERATURE CELSIUS

 * =Non NWS site. Station does not report precipitation (e.g. rain,
    snow, etc.), thunder, or fog.

DCZ001-MDZ009-015-VAZ040>042-051-053>054-270800-
WASHINGTON METRO

CITY           SKY/WX    TMP DP  RH WIND       PRES   REMARKS
WASHINGTON NAT   N/A     47  46  97 E6        30.15F FOG
DULLES         DRZL/FOG  45  45 100 SE5       30.13F VSB 1/2
ANDREWS AFB    FOG       45  45 100 E5        30.12F VSB 1/2
FT BELVOIR     CLOUDY    46  45  93 CALM      30.14F FOG
QUANTICO       LGT RAIN  48  48 100 NE3       30.15F VSB 1/2
COLLEGE PARK*  CLOUDY    43  43 100 E3        30.14F
LEESBURG*      FOG       46  46 100 SE3       30.14F VSB 1/2
MANASSAS*      FOG       46  46 100 SE3       30.13F VSB 3/4

$$

MDZ006>007-011-014-270800-
BALTIMORE METRO

CITY           SKY/WX    TMP DP  RH WIND       PRES   REMARKS
BWI AIRPORT    FOG       44  44 100 E8        30.14F VSB 1/4
MD SCIENCE CTR   N/A     45  43  93 MISG      30.16F
MARTIN STATE   LGT RAIN  45  45 100 NE5       30.17F VSB 1
ANNAPOLIS      FOG       46  46 100 E5        30.15F VSB 1/2
FORT MEADE*    CLOUDY    43  43 100 E5        30.17F

$$

MDZ012-015-019>023-270800-
MARYLAND EASTERN SHORE

CITY           SKY/WX    TMP DP  RH WIND       PRES   REMARKS
OCEAN CITY     FOG       46  44  93 E5        30.16F VSB 1/4
SALISBURY      FOG       47  47 100 E3        30.15F VSB 1/4
BAY BRIDGE AP* FOG       45  45 100 E3        30.15F VSB 1/2
CAMBRIDGE*     FOG       46  46 100 SE5       30.14F VSB 1/4
EASTON*        FOG       47  45  95 SE3       30.18F VSB 1/2

$$

MDZ017>025-270800-
SOUTHERN MARYLAND

CITY           SKY/WX    TMP DP  RH WIND       PRES   REMARKS
PATUXENT RIVER FOG       47  47 100 E6        30.14F VSB 1/4
ST INIGOES     FOG       49  48  97 E3        30.14F VSB 3/4
LEONARDTOWN*   CLOUDY    46  45  93 CALM      30.15F VSB 1/2

$$

MDZ003>005-270800-
NORTH CENTRAL MARYLAND

CITY           SKY/WX    TMP DP  RH WIND       PRES   REMARKS
FREDERICK*     CLOUDY    46  46 100 CALM      30.17S
HAGERSTOWN APT LGT RAIN  46  45  96 E5        30.10F FOG
WESTMINSTER*   CLOUDY    43  43 100 SE3       30.13F

$$

MDZ501>502-270800-
WESTERN MARYLAND

CITY           SKY/WX    TMP DP  RH WIND       PRES   REMARKS
OAKLAND*       CLOUDY    43  43 100 S9        30.02F
CUMBERLAND*    CLOUDY    46  46 100 CALM      30.11F

$$

VAZ025>031-270800-
SHENANDOAH VALLEY

CITY           SKY/WX    TMP DP  RH WIND       PRES   REMARKS
WINCHESTER*    DRIZZLE   45  45 100 SE7       30.08F
FRONT ROYAL*   CLOUDY    46  46 100 CALM      30.07F
LURAY*         DRIZZLE   50  50 100 CALM      30.07F
NEW MARKET*    CLOUDY    47  46  97 CALM      30.08F
STAUNTON*      CLOUDY    50  48  95 SW6       30.09F
WAYNESBORO*    MOCLDY    49  49 100 CALM      30.08F

$$

WVZ021-048>050-054>055-270800-
EASTERN WEST VIRGINIA PANHANDLE

CITY           SKY/WX    TMP DP  RH WIND       PRES   REMARKS
MARTINSBURG    CLOUDY    45  44  97 VRB3      30.09F FOG
PETERSBURG*    CLOUDY    48  47  94 N5        30.08F

$$

VAZ036>039-050-270800-
CENTRAL FOOTHILLS

CITY           SKY/WX    TMP DP  RH WIND       PRES   REMARKS
CHARLOTTESVILL LGT RAIN  50  49  96 CALM      30.12F VSB 3/4
CULPEPER*      FOG       49  49 100 CALM      30.14F VSB 3/4
ORANGE*        FOG       46  46 100 CALM      30.13F VSB 1/2
GORDONSVILLE*  CLOUDY    49  49 100 CALM      30.12F FOG
WARRENTON*     FOG       48  46  91 CALM      30.12F VSB 1/2

$$

VAZ055>057-270800-
NORTH AND CENTRAL PIEDMONT

CITY           SKY/WX    TMP DP  RH WIND       PRES   REMARKS
FREDERICKSBRG* LGT RAIN  49  49 100 CALM      30.12F VSB 1/2
STAFFORD*      FOG       47  47 100 CALM      30.17F VSB 1/2

$$

NCZ024-NYZ072-PAZ021-071-VAZ022-071-270800-
OTHER REGIONAL OBSERVATIONS

CITY           SKY/WX    TMP DP  RH WIND       PRES   REMARKS
NEW YORK CITY  CLOUDY    38  37  97 NE8       30.25F FOG
PHILADELPHIA   CLOUDY    42  41  96 E7        30.18F FOG
PITTSBURGH     CLOUDY    53  53 100 SE5       29.94F
ROANOKE        CLOUDY    54  54 100 SE6       30.12F
RICHMOND       CLOUDY    52  50  93 CALM      30.12F
RALEIGH        PTCLDY    63  54  72 S8        30.13S

$$

ANZ530>537-270800-
MARINE OBSERVATIONS

STATION/POSITION TIME  TEMP    WIND        PRES
                       AIR SEA DIR/SP/G
                 (UTC) (F)     (DEG/KT/KT) (MB)
THOMAS PT LIGHT  0700   45 45   90/  5/  6   N/A
BALT KEY BRIDGE  0648   44      80/  7/  8 1021.1F
COVE POINT       0642   46     170/  5/  6 1021.5F
LEWISETTA        0642   47 50  110/  7/  8 1020.5F
SOLOMONS ISLAND  0642   46 47   90/  5/  6   N/A
PINEY POINT      0648          140/  6/  6   N/A

$$




USA.gov is the U.S. government's official web portal to all federal, state and local government web resources and services.